Regional Weather Roundup
Issued by NWS Jackson, KY

Home | Current Version | Previous Version | Graphics & Text | Print | Product List | Glossary On
Versions: 1 2 3 4 5 6 7 8 9 10 11 12 13 14 15 16 17 18 19 20 21 22 23 24 25 26 27 28 29 30 31 32 33 34 35 36 37 38 39 40 41 42 43 44 45 46 47 48 49 50
000
ASUS43 KJKL 191910
RWRJKL

EAST KENTUCKY HOURLY WEATHER ROUNDUP
NATIONAL WEATHER SERVICE JACKSON KY
200 PM EST SUN FEB 19 2017

NOTE: "FAIR" INDICATES FEW OR NO CLOUDS BELOW 12,000 FEET WITH
NO SIGNIFICANT WEATHER AND/OR OBSTRUCTIONS TO VISIBILITY.

* THESE REPORTS ARE NOT UNDER NWS QUALITY CONTROL AND MAY NOT
  REPORT WEATHER SUCH AS PRECIPITATION AND FOG.

KYZ079-080-083-085-087-088-110-112-115-119-120-192000
...EASTERN KENTUCKY...

CITY           SKY/WX    TMP DP  RH WIND       PRES   REMARKS
JACKSON        MOSUNNY   58  45  62 VRB3      30.10F
LONDON         MOSUNNY   58  45  62 SW6       30.11S
SOMERSET*      SUNNY     59  45  58 SW5       30.11F
MONTICELLO*    SUNNY     63  49  60 NW8       30.11F
WILLIAMSBURG*  PTCLDY    59  48  67 CALM      30.11F
MIDDLESBORO*   SUNNY     61  47  60 NE3       30.12F
HARLAN APT*    PTCLDY    61  45  55 S5        30.10F
PIKE CO APT*     N/A     58  46  63 SW6       30.09F
BIG SANDY APT* MOCLDY    57  46  66 CALM      30.10S
MOREHEAD APT*  CLOUDY    52  45  76 SW7       30.13S
ASHLAND*       CLOUDY    54  46  76 W6        30.08F
$$

KYZ035-036-041-042-044-050-067-078-099-192000
...CENTRAL KENTUCKY...

CITY           SKY/WX    TMP DP  RH WIND       PRES   REMARKS
MT STERLING*   CLOUDY    50  46  87 CALM      30.13F
FLEMING/MASON* CLOUDY    52  47  85 SW6       30.12S
DANVILLE*      PTSUNNY   63  46  55 CALM      30.10F
LEXINGTON      CLOUDY    55  48  77 VRB3      30.11S
FRANKFORT      CLOUDY    54  47  77 W3        30.10S
LOUISVILLE     CLOUDY    58  49  72 CALM      30.10S HAZE
LEBANON*       MOCLDY    63  50  63 W5        30.10F
GLASGOW*       MOSUNNY   62  50  64 SW5       30.10F
BOWLING GREEN  PTSUNNY   63  51  65 SW6       30.11F
$$

KYZ091>093-OHZ055-061-077-WVZ005-015-034-035-042-192000
...SOUTHERN OHIO/WEST VIRGINIA...

CITY           SKY/WX    TMP DP  RH WIND       PRES   REMARKS
COVINGTON      CLOUDY    55  47  74 W6        30.09F
COLUMBUS       MOSUNNY   54  44  69 S9        30.06F
DAYTON         MOSUNNY   55  45  68 SW9       30.08S
WILMINGTON     CLOUDY    50  46  86 W8        30.07F FOG
HUNTINGTON     CLOUDY    52  46  80 SW6       30.10S
CHARLESTON     CLOUDY    52  45  77 SW7       30.09F
PINEVILLE*     CLOUDY    53  43  69 MISG      30.14F
BECKLEY        CLOUDY    48  43  82 NW7       30.09S
BLUEFIELD      CLOUDY    45  42  89 W8        30.10S
LOGAN CO APT*  CLOUDY    52  46  82 CALM      30.10S
$$

VAZ002-007-008-TNZ017-027-036-066-071-192000
...SOUTHWEST VIRGINIA/EAST TENNESSEE...

CITY           SKY/WX    TMP DP  RH WIND       PRES   REMARKS
WISE*          PTSUNNY   57  41  54 CALM      30.11S
JONESVILLE*      N/A    N/A N/A N/A MISG        N/A
ABINGDON*      CLOUDY    54  47  78 W5        30.11S
BRISTOL        CLOUDY    56  45  66 W7        30.12S
MORRISTOWN*    MOCLDY    57  45  62 CALM      30.11F
SEVIERVILLE*   PTCLDY    59  45  58 CALM      30.12F
KNOXVILLE      PTSUNNY   62  46  55 E3        30.11F
LAFOLLETTE*    PTCLDY    63  46  55 CALM      30.14F
OAK RIDGE      SUNNY     62  46  55 E5        30.12F
CROSSVILLE     SUNNY     61  45  55 VRB3      30.12F
NASHVILLE      PTSUNNY   64  51  62 NE3       30.13R
$$

...KEY TO REMARKS...
VSB - VISIBILITY IN MILES
WCI - WIND CHILL INDEX
HX  - HEAT INDEX

$$



USA.gov is the U.S. government's official web portal to all federal, state and local government web resources and services.